Location: Campestrin
(46.4667°N, 11.7167°E)
Time: 03:54:57
(UTC+00:00)

Cosmos 2263 Rocket - Pass Details

Date: 18 April 2021
Orbit: 824 x 848 km, 71.0° (Epoch: 16 May)

Event Time Altitude Azimuth Distance (km) Brightness Sun altitude
Exits shadow 21:42:46 25° 60° (ENE) 1,602 3.6 -29.0°
Drops below altitude 10° 21:45:26 10° 41° (NE) 2,433 4.8 -29.2°
Sets 21:48:01 0° 33° (NNE) 3,373 5.7 -29.4°
